Simultaneous Nadir Overpasses (SNOs) Predictions

Prediction of SNOs between METOP-B and TERRA Satellite Orbit:

Table of predicted SNOs for the next 14.0 days since TLE Epoch: 5/2/2015
Index Date (METOP-B) Time (METOP-B) Lat,Lon (METOP-B) SZA (METOP-B ) Date (TERRA) Time (TERRA) Lat,Lon (TERRA) SZA (TERRA ) Distance(km) Time Diff (sec)
1 05/04/2015 01:55:51 81.29,-162.11 68.39 05/04/2015 01:56:57 81.29,-161.98 68.44 2.26 66
2 05/04/2015 02:46:30 -81.31, 6.06 111.52 05/04/2015 02:46:23 -81.31, 5.99 111.53 1.27 7
3 05/06/2015 21:30:11 81.30, -95.58 67.62 05/06/2015 21:31:15 81.29, -95.58 67.64 0.62 64
4 05/06/2015 22:20:51 -81.30, 72.21 112.34 05/06/2015 22:20:41 -81.31, 72.40 112.32 3.26 10
5 05/09/2015 17:04:32 81.30, -29.09 66.87 05/09/2015 17:05:33 81.30, -28.99 66.91 1.81 61
6 05/09/2015 17:55:12 -81.30, 138.70 113.09 05/09/2015 17:55:00 -81.30, 138.64 113.10 1.24 12
7 05/12/2015 12:38:53 81.30, 37.34 66.15 05/12/2015 12:39:51 81.30, 37.43 66.19 1.53 58
8 05/12/2015 13:29:33 -81.30,-154.85 113.80 05/12/2015 13:29:18 -81.30,-154.92 113.82 1.30 15
9 05/15/2015 08:13:13 81.30, 103.73 65.46 05/15/2015 08:14:08 81.29, 103.67 65.48 1.28 55




NCC Satellite Simultaneous Nadir Overpasses (SNOs) Prediction Service
